When you browse on this site, cookies collect data to enhance your experience and personalize the content and advertising you see.
Visit our Privacy Policy to learn more. By continuing to use the site, you agree to this use of cookies and data.
EN

Hourly Weather Shaki

Today, 11 July, Saturday

Time Temperature Precipitation Wind Pressure Humidity
00:00 +25°C° 0.3 mm 3 mps 735 mmHg 74%
01:00 +25°C° 0.2 mm 2 mps 735 mmHg 75%
02:00 +25°C° 0.2 mm 2 mps 735 mmHg 76%
03:00 +24°C° 0 mm 1 mps 735 mmHg 76%
04:00 +25°C° 0.1 mm 1 mps 736 mmHg 75%
05:00 +25°C° 0.1 mm 1 mps 736 mmHg 73%
06:00 +25°C° 0.1 mm 1 mps 736 mmHg 71%
07:00 +25°C° 0.7 mm 1 mps 736 mmHg 76%
08:00 +25°C° 0.7 mm 1 mps 735 mmHg 80%
09:00 +24°C° 0 mm 2 mps 735 mmHg 83%
10:00 +25°C° 0.6 mm 2 mps 735 mmHg 81%
11:00 +25°C° 0.6 mm 1 mps 735 mmHg 78%
12:00 +26°C° 0.6 mm 1 mps 735 mmHg 75%
13:00 +27°C° 0.1 mm 1 mps 735 mmHg 70%
14:00 +28°C° 0.1 mm 1 mps 734 mmHg 65%
15:00 +29°C° 0.1 mm 1 mps 734 mmHg 60%
16:00 +29°C° 0.1 mm 1 mps 734 mmHg 59%
17:00 +29°C° 0.1 mm 2 mps 734 mmHg 57%
18:00 +29°C° 0.1 mm 2 mps 734 mmHg 55%
19:00 +28°C° 0.1 mm 2 mps 734 mmHg 58%
20:00 +27°C° 0.1 mm 1 mps 734 mmHg 60%
21:00 +26°C° 0.1 mm 1 mps 734 mmHg 63%
22:00 +26°C° 0 mm 2 mps 734 mmHg 62%
23:00 +26°C° 0 mm 2 mps 734 mmHg 61%

Tomorrow, 12 July, Sunday

Time Temperature Precipitation Wind Pressure Humidity
00:00 +26°C° 0 mm 2 mps 734 mmHg 59%
01:00 +25°C° 0 mm 2 mps 733 mmHg 61%
02:00 +25°C° 0 mm 2 mps 733 mmHg 63%
03:00 +24°C° 0 mm 2 mps 733 mmHg 64%
04:00 +25°C° 0 mm 1 mps 733 mmHg 62%
05:00 +25°C° 0 mm 1 mps 733 mmHg 60%
06:00 +26°C° 0 mm 1 mps 732 mmHg 59%
07:00 +27°C° 0 mm 1 mps 732 mmHg 54%
08:00 +29°C° 0 mm 1 mps 732 mmHg 50%
09:00 +30°C° 0 mm 1 mps 732 mmHg 46%
10:00 +31°C° 0.1 mm 2 mps 732 mmHg 43%
11:00 +32°C° 0.1 mm 2 mps 732 mmHg 40%
12:00 +34°C° 0.1 mm 3 mps 731 mmHg 38%
13:00 +34°C° 0.2 mm 3 mps 731 mmHg 37%
14:00 +35°C° 0.2 mm 3 mps 730 mmHg 37%
15:00 +35°C° 0.2 mm 3 mps 730 mmHg 36%
16:00 +35°C° 0.1 mm 3 mps 730 mmHg 37%
17:00 +34°C° 0.1 mm 3 mps 729 mmHg 37%
18:00 +34°C° 0.1 mm 4 mps 729 mmHg 38%
19:00 +31°C° 0 mm 3 mps 729 mmHg 42%
20:00 +29°C° 0 mm 3 mps 729 mmHg 46%
21:00 +28°C° 0 mm 2 mps 729 mmHg 51%
22:00 +27°C° 0 mm 2 mps 729 mmHg 52%
23:00 +26°C° 0 mm 2 mps 729 mmHg 54%

Day after tomorrow, 13 July, Monday

Time Temperature Precipitation Wind Pressure Humidity
00:00 +26°C° 0 mm 2 mps 729 mmHg 56%
01:00 +26°C° 0 mm 1 mps 729 mmHg 56%
02:00 +25°C° 0 mm 1 mps 729 mmHg 57%
03:00 +25°C° 0 mm 1 mps 728 mmHg 57%
04:00 +26°C° 0 mm 1 mps 728 mmHg 57%
05:00 +26°C° 0 mm 1 mps 728 mmHg 56%
06:00 +27°C° 0 mm 1 mps 728 mmHg 55%
07:00 +28°C° 0 mm 1 mps 728 mmHg 52%
08:00 +29°C° 0 mm 1 mps 728 mmHg 50%
09:00 +30°C° 0 mm 2 mps 728 mmHg 47%
10:00 +31°C° 0.1 mm 2 mps 728 mmHg 45%
11:00 +34°C° 0.1 mm 2 mps 727 mmHg 42%
12:00 +35°C° 0.1 mm 3 mps 727 mmHg 40%
13:00 +35°C° 0.2 mm 3 mps 727 mmHg 39%
14:00 +35°C° 0.2 mm 2 mps 726 mmHg 38%
15:00 +36°C° 0.2 mm 2 mps 726 mmHg 38%
16:00 +35°C° 0.1 mm 2 mps 726 mmHg 38%
17:00 +35°C° 0.1 mm 2 mps 726 mmHg 38%
18:00 +34°C° 0.1 mm 1 mps 726 mmHg 39%
19:00 +32°C° 0.3 mm 2 mps 726 mmHg 45%
20:00 +30°C° 0.3 mm 2 mps 727 mmHg 52%
21:00 +28°C° 0.3 mm 2 mps 727 mmHg 58%
22:00 +28°C° 0.5 mm 2 mps 727 mmHg 63%
23:00 +27°C° 0.5 mm 2 mps 727 mmHg 68%

14 July, Tuesday

Time Temperature Precipitation Wind Pressure Humidity
00:00 +26°C° 0.5 mm 2 mps 727 mmHg 73%
01:00 +26°C° 0.1 mm 2 mps 727 mmHg 73%
02:00 +26°C° 0.1 mm 2 mps 727 mmHg 72%
03:00 +25°C° 0.1 mm 1 mps 727 mmHg 72%
04:00 +26°C° 0 mm 1 mps 727 mmHg 71%
05:00 +26°C° 0 mm 1 mps 728 mmHg 71%
06:00 +26°C° 0 mm 1 mps 728 mmHg 70%
07:00 +27°C° 0.4 mm 1 mps 728 mmHg 70%
08:00 +27°C° 0.4 mm 2 mps 729 mmHg 70%
09:00 +27°C° 0.4 mm 2 mps 729 mmHg 69%
10:00 +29°C° 0.2 mm 2 mps 729 mmHg 65%
11:00 +30°C° 0.2 mm 2 mps 729 mmHg 60%
12:00 +31°C° 0.2 mm 2 mps 729 mmHg 56%
13:00 +33°C° 0.3 mm 3 mps 729 mmHg 52%
14:00 +34°C° 0.3 mm 3 mps 729 mmHg 47%
15:00 +35°C° 0.3 mm 3 mps 729 mmHg 43%
16:00 +35°C° 0.3 mm 3 mps 729 mmHg 44%
17:00 +34°C° 0.3 mm 3 mps 729 mmHg 45%
18:00 +34°C° 0.3 mm 3 mps 729 mmHg 46%
19:00 +31°C° 0.3 mm 2 mps 730 mmHg 51%
20:00 +29°C° 0.3 mm 2 mps 731 mmHg 55%
21:00 +28°C° 0.3 mm 2 mps 731 mmHg 60%
22:00 +27°C° 0.3 mm 2 mps 731 mmHg 62%
23:00 +27°C° 0.3 mm 2 mps 732 mmHg 64%

15 July, Wednesday

Time Temperature Precipitation Wind Pressure Humidity
00:00 +26°C° 0.3 mm 1 mps 732 mmHg 67%
01:00 +25°C° 0 mm 2 mps 732 mmHg 67%
02:00 +25°C° 0 mm 2 mps 732 mmHg 67%
03:00 +24°C° 0 mm 2 mps 732 mmHg 68%
04:00 +25°C° 0 mm 2 mps 732 mmHg 67%
05:00 +25°C° 0 mm 1 mps 732 mmHg 67%
06:00 +25°C° 0 mm 1 mps 733 mmHg 67%
07:00 +27°C° 0 mm 1 mps 733 mmHg 64%
08:00 +28°C° 0 mm 2 mps 733 mmHg 61%
09:00 +30°C° 0 mm 3 mps 733 mmHg 59%
10:00 +31°C° 0.1 mm 3 mps 733 mmHg 55%
11:00 +33°C° 0.1 mm 4 mps 733 mmHg 50%
12:00 +34°C° 0.1 mm 4 mps 733 mmHg 46%
13:00 +35°C° 0.2 mm 4 mps 733 mmHg 43%
14:00 +35°C° 0.2 mm 4 mps 732 mmHg 40%
15:00 +36°C° 0.2 mm 3 mps 732 mmHg 37%
16:00 +35°C° 0.1 mm 3 mps 732 mmHg 38%
17:00 +35°C° 0.1 mm 3 mps 732 mmHg 40%
18:00 +35°C° 0.1 mm 2 mps 732 mmHg 41%
19:00 +33°C° 0.1 mm 3 mps 732 mmHg 48%
20:00 +30°C° 0.1 mm 4 mps 733 mmHg 55%
21:00 +28°C° 0.1 mm 4 mps 733 mmHg 61%
22:00 +27°C° 0.2 mm 4 mps 733 mmHg 66%
23:00 +26°C° 0.2 mm 4 mps 733 mmHg 70%

16 July, Thursday

Time Temperature Precipitation Wind Pressure Humidity
00:00 +25°C° 0.2 mm 3 mps 733 mmHg 74%
01:00 +25°C° 0.2 mm 3 mps 733 mmHg 75%
02:00 +24°C° 0.2 mm 2 mps 733 mmHg 76%
03:00 +24°C° 0.2 mm 2 mps 733 mmHg 77%
04:00 +24°C° 0.2 mm 2 mps 733 mmHg 76%
05:00 +25°C° 0.2 mm 1 mps 733 mmHg 75%
06:00 +25°C° 0.2 mm 1 mps 733 mmHg 75%
07:00 +26°C° 0.7 mm 1 mps 733 mmHg 74%
08:00 +26°C° 0.7 mm 2 mps 732 mmHg 74%
09:00 +27°C° 0.7 mm 2 mps 732 mmHg 74%
10:00 +28°C° 0.2 mm 2 mps 732 mmHg 69%
11:00 +30°C° 0.2 mm 2 mps 732 mmHg 63%
12:00 +31°C° 0.2 mm 2 mps 732 mmHg 58%
13:00 +31°C° 0.1 mm 2 mps 731 mmHg 56%
14:00 +33°C° 0.1 mm 3 mps 731 mmHg 55%
15:00 +33°C° 0.1 mm 3 mps 731 mmHg 53%
16:00 +32°C° 0.1 mm 2 mps 730 mmHg 54%
17:00 +32°C° 0.1 mm 2 mps 730 mmHg 54%
18:00 +31°C° 0.1 mm 2 mps 730 mmHg 55%
19:00 +30°C° 0.2 mm 2 mps 730 mmHg 57%
20:00 +29°C° 0.2 mm 3 mps 731 mmHg 60%
21:00 +28°C° 0.2 mm 3 mps 731 mmHg 62%
22:00 +27°C° 0.5 mm 3 mps 731 mmHg 65%
23:00 +26°C° 0.5 mm 3 mps 730 mmHg 68%
Show more